Regional Weather Roundup
Issued by NWS

Home | Current Version | Previous Version | Graphics & Text | Print | Product List | Glossary On
Versions: 1 2 3 4 5 6 7 8 9 10 11 12 13 14 15 16 17 18 19 20 21 22 23 24 25 26 27
000
ASUS45 KCYS 182110
RWRWY

WYOMING REGIONAL WEATHER ROUNDUP
NATIONAL WEATHER SERVICE CHEYENNE WY
300 PM MDT FRI AUG 18 2017

NOTE:  "FAIR" INDICATES FEW OR NO CLOUDS BELOW 12,000 FEET
WITH NO SIGNIFICANT WEATHER AND/OR OBSTRUCTIONS TO VISIBILITY.

WYZ001-182200-
YELLOWSTONE NATIONAL PARK

CITY           SKY/WX    TMP DP  RH WIND       PRES   REMARKS
LK YELLOWSTONE   N/A     71  27  19 VRB3      30.33S
W YELLOWSTONE  NOT AVBL

$$
WYZ002>013-054>058-071-098>099-182200-
NORTHERN WYOMING

CITY           SKY/WX    TMP DP  RH WIND       PRES   REMARKS
JACKSON        FAIR      77  30  18 S8        30.25F
CODY           FAIR      86  38  18 W9        30.07F
GREYBULL       FAIR      90  31  12 VRB3      30.00F
WORLAND        FAIR      89  33  13 NE8       30.03F
SHERIDAN       FAIR      90  35  14 N7        30.01F
BUFFALO        FAIR      88  30  12 VRB6      30.08F
GILLETTE       FAIR      87  30  13 NW8G17    30.05F
HULETT         FAIR      82  32  16 W3        30.07F
NEWCASTLE      FAIR      84  30  14 SW10G20   30.07F

$$
WYZ014>020-022>026-101>103-182200-
CENTRAL WYOMING

CITY           SKY/WX    TMP DP  RH WIND       PRES   REMARKS
BIG PINEY      FAIR      80  29  15 W9        30.27F
PINEDALE       FAIR      75  28  17 CALM      30.28F
DUBOIS         FAIR      75  25  15 W14G29    30.24F
LANDER           N/A    N/A N/A N/A MISG      30.11F
RIVERTON       FAIR      83  28  13 VRB6      30.13F
CASPER         FAIR      84  33  16 W6        30.13F
DOUGLAS        FAIR      85  34  16 N10G16    30.12F

$$
WYZ021-027>030-104>119-182200-
SOUTHERN WYOMING

CITY           SKY/WX    TMP DP  RH WIND       PRES   REMARKS
EVANSTON       FAIR      82  32  16 W22G28    30.31S
KEMMERER         N/A     79  28  15 W18G29    30.31S
FORT BRIDGER   FAIR      84  27  12 SW17G25   30.31F
ROCK SPRINGS   FAIR      81  28  14 W13G21    30.26F
RAWLINS        FAIR      82  29  14 SW23G30   30.26F
SARATOGA       FAIR      79  30  17 NW9G25    30.30F
LARAMIE        FAIR      78  32  18 NW8       30.28F
CHEYENNE       FAIR      84  34  16 VRB7      30.20F
TORRINGTON     FAIR      87  34  15 VRB3      30.07F
PINE BLUFFS    FAIR      82  39  21 S5        30.16F

$$




USA.gov is the U.S. government's official web portal to all federal, state and local government web resources and services.